[[{"header":{"parameterUnit":"m.s-1","parameterCategory":1,"la1":30.2991,"la2":30.254,"lo1":-89.0895,"lo2":-89.0444,"dy":0.0017,"dx":0.0017,"nx":28,"ny":28,"refTime":"2023-11-13T03:00:00:Z","depth":0,"parameterNumber":2,"parameterNumberName":"U-component_of_WINDS"},"data":[0,0,0,0,0,0,0,0,0,0,0,0,0,0,0,0,0,0,0,0,0,0,0,0,0,0,0,0,0,0,0,0,0,0,0,0,0,0,0,0,0,0,0,0,0,0,0,0,0,0,0,0,0,0,0,0,0,0,-7.1791,-7.1793,0,-7.191,-7.1912,-7.1913,-7.1749,-7.1743,-7.1738,-7.1732,-7.1857,-7.1866,-7.1875,0,0,0,0,0,0,0,0,0,0,0,0,0,-7.1425,-7.1433,-7.1791,-7.1793,-7.1794,-7.191,-7.1912,-7.1913,-7.175,-7.1743,-7.1736,-7.1729,-7.1854,-7.1865,-7.1875,0,0,0,0,0,0,0,0,0,0,0,0,0,-7.1568,-7.1435,-7.1791,-7.1727,-7.1722,-7.191,-7.1912,-7.1914,-7.1752,-7.1743,-7.1734,-7.1726,-7.1851,-7.1864,-7.1877,-7.2134,0,0,-7.1917,-7.1923,0,0,0,0,0,0,0,0,-7.156,-7.1582,-7.1735,-7.1731,-7.1727,-7.1806,-7.1828,-7.1988,-7.1754,-7.1741,-7.1732,-7.1722,-7.1848,-7.186,-7.1902,-7.214,-7.2145,-7.1918,-7.1926,-7.1932,-7.1936,0,0,0,0,0,0,0,-7.1551,-7.1576,-7.1838,-7.1737,-7.1732,-7.1693,-7.1703,-7.1858,-7.1842,-7.1741,-7.173,-7.1746,-7.1844,-7.189,-7.1904,-7.2147,-7.1918,-7.193,-7.1938,-7.1943,-7.2602,-7.2611,0,0,0,0,0,0,-7.1548,-7.1569,-7.1834,-7.1842,-7.162,-7.1707,-7.1718,-7.1789,-7.184,-7.1839,-7.1753,-7.1738,-7.1872,-7.1889,-7.1908,-7.2212,-7.1932,-7.1944,-7.1952,-7.2593,-7.2604,-7.2615,0,0,0,0,0,0,-7.1541,-7.1573,-7.183,-7.1702,-7.1732,-7.1722,-7.1803,-7.1796,-7.1842,-7.1849,-7.1845,-7.1803,-7.1865,-7.1889,-7.2079,-7.2215,-7.195,-7.1962,-7.2581,-7.2596,-7.2609,-7.2824,0,0,0,0,0,0,-7.1531,-7.1572,-7.1669,-7.1706,-7.1739,-7.1999,-7.1812,-7.1805,-7.1865,-7.1846,-7.1895,-7.1895,-7.186,-7.206,-7.2092,-7.2228,-7.1972,-7.2569,-7.2588,-7.2605,-7.2805,-7.2844,-7.2878,0,0,0,0,0,-7.1519,-7.1725,-7.1675,-7.1708,-7.186,-7.2007,-7.2026,-7.1982,-7.1877,-7.1975,-7.1979,-7.1893,-7.2194,-7.2081,-7.2115,-7.2257,-7.256,-7.2583,-7.2603,-7.2789,-7.2837,-7.2877,0,0,0,0,0,0,-7.1706,-7.1729,-7.1673,-7.1897,-7.1951,-7.1979,-7.2101,-7.2034,-7.2119,-7.2098,-7.204,-7.2052,-7.2256,-7.2275,-7.2148,-7.2509,-7.236,-7.239,-7.2489,-7.2535,-7.257,-7.2562,-7.1983,0,0,0,0,0,-7.1773,-7.1889,-7.1903,-7.21,-7.213,-7.2112,-7.2173,-7.2134,-7.2188,-7.2211,-7.2228,-7.2285,-7.2392,-7.2464,-7.2563,-7.2807,-7.2816,-7.2921,-7.2958,-7.2988,-7.3014,-7.3145,-7.3193,-7.2686,-7.2685,-7.2685,0,0,-7.1913,-7.194,-7.2017,-7.2138,-7.2175,-7.2298,-7.2132,-7.2268,-7.2359,-7.2231,-7.2412,-7.2427,-7.2486,-7.2704,-7.2801,-7.2727,-7.3156,-7.3015,-7.3039,-7.3049,-7.3172,-7.322,-7.3263,-7.27,-7.2698,-7.2695,0,0,-7.2232,-7.2264,-7.2431,-7.2472,-7.2529,-7.2516,-7.2556,-7.2594,-7.26,-7.2779,-7.2686,-7.2793,-7.2979,-7.3025,-7.3073,-7.341,-7.3334,-7.3444,-7.3634,-7.3762,-7.3802,-7.3838,-7.3959,-7.4003,-7.347,-7.347,-7.3471,0,-7.2399,-7.2579,-7.2526,-7.267,-7.2726,-7.2615,-7.2785,-7.2827,-7.2915,-7.2957,-7.2872,-7.3103,-7.3135,-7.3363,-7.3445,-7.3487,-7.3532,-7.3438,-7.3801,-7.3836,-7.3868,-7.3982,-7.4028,-7.3483,-7.3482,-7.348,-7.3479,0,-7.2783,-7.2909,-7.3038,-7.3125,-7.3195,-7.3352,-7.3323,-7.3401,-7.3356,-7.3352,-7.3536,-7.3571,-7.3675,-7.3726,-7.3684,-7.3948,-7.39,-7.381,-7.3659,-7.393,-7.4037,-7.408,-7.3502,-7.3497,-7.3493,-7.349,0,0,-7.3224,-7.3278,-7.3327,-7.3365,-7.3421,-7.3518,-7.3669,-7.377,-7.3839,-7.3903,-7.4029,-7.4189,-7.4105,-7.416,-7.4122,-7.4234,-7.45,-7.4129,-7.413,-7.4198,-7.4795,-7.4864,-7.4915,-7.445,-7.4458,-7.4464,-7.479,0,-7.3542,-7.3803,-7.3759,-7.4012,-7.4129,-7.4025,-7.4157,-7.4207,-7.4207,-7.4306,-7.4306,-7.4421,-7.4301,-7.4333,-7.444,-7.4445,-7.4619,-7.4421,-7.4568,-7.4574,-7.4557,-7.4971,-7.5044,-7.535,-7.4831,-7.4838,-7.4843,0,-7.3949,-7.4028,-7.4293,-7.433,-7.4377,-7.4497,-7.4586,-7.4682,-7.4736,-7.4728,-7.4789,-7.473,-7.4882,-7.4729,-7.4938,-7.4804,-7.4862,-7.4873,-7.4884,-7.4897,-7.4726,-7.4996,-7.5446,-7.5493,-7.4908,-7.4903,-7.4898,0,-7.4245,-7.4417,-7.4598,-7.4634,-7.4682,-7.4768,-7.4793,-7.4837,-7.4901,-7.4979,-7.502,-7.5116,-7.5169,-7.5245,-7.5214,-7.5104,-7.543,-7.5273,-7.5428,-7.543,-7.5502,-7.5499,-7.5969,-7.5539,-7.5538,-7.5537,-7.5536,0,-7.4606,-7.4773,-7.4731,-7.4843,-7.5026,-7.4975,-7.5158,-7.517,-7.5211,-7.5324,-7.524,-7.5347,-7.5299,-7.5404,-7.5381,-7.5558,-7.5583,-7.5582,-7.5574,-7.559,-7.559,-7.5627,-7.5606,-7.5549,-7.5546,-7.5544,-7.5542,0,-7.4968,-7.4947,-7.5137,-7.5167,-7.5178,-7.5313,-7.5338,-7.5443,-7.5436,-7.558,-7.5611,-7.5601,-7.572,-7.5696,-7.5827,-7.5811,-7.6035,-7.6,-7.6016,-7.6009,-7.6166,-7.6152,-7.6678,-7.6745,-7.627,-7.6275,-7.6278,0,-7.5201,-7.5326,-7.5369,-7.5438,-7.5468,-7.5581,-7.5645,-7.5599,-7.567,-7.5741,-7.5837,-7.5948,-7.6035,-7.623,-7.6236,-7.6336,-7.6303,-7.6481,-7.6318,-7.6331,-7.6307,-7.6301,-7.6313,-7.6514,-7.6519,-7.6523,-7.6527,0,-7.5615,-7.5599,-7.5694,-7.5787,-7.5865,-7.5936,-7.5999,-7.6061,-7.602,-7.6104,-7.6224,-7.6291,-7.6425,-7.6537,-7.663,-7.6655,-7.6587,-7.6578,-7.6619,-7.6638,-7.6643,-7.6643,-7.6106,-7.6566,-7.6563,-7.656,-7.6558,-7.6556,-7.592,-7.6027,-7.6074,-7.6183,-7.6225,-7.6286,-7.6386,-7.6391,-7.649,-7.6595,-7.6562,-7.6699,-7.675,-7.6868,-7.6905,-7.7012,-7.6946,-7.7006,-7.7021,-7.7037,-7.7056,-7.6625,-7.7029,-7.7027,-7.7026,-7.7025,-7.7024,0,-7.6331,-7.6356,-7.6457,-7.6547,-7.6634,-7.6559,-7.6624,-7.6702,-7.6823,-7.6876,-7.6963,-7.7102,-7.721,-7.7224,-7.7326,-7.741,-7.7381,-7.7438,-7.7432,-7.744,-7.7109,-7.7063,-7.746,-7.746,-7.746,-7.746,-7.746,-7.746,-7.6555,-7.6732,-7.6721,-7.6919,-7.6942,-7.7075,-7.7119,-7.7175,-7.7217,-7.7375,-7.7465,-7.7472,-7.751,-7.7615,-7.7711,-7.7712,-7.7754,-7.7825,-7.7815,-7.7506,-7.7463,-7.7421,-7.7378,-7.7835,-7.7835,-7.8136,-7.8139,-7.8141]},{"header":{"parameterUnit":"m.s-1","parameterCategory":1,"la1":30.2991,"la2":30.254,"lo1":-89.0895,"lo2":-89.0444,"dy":0.0017,"dx":0.0017,"nx":28,"ny":28,"refTime":"2023-11-13T03:00:00:Z","depth":0,"parameterNumber":3,"parameterNumberName":"V-component_of_WINDS"},"data":[0,0,0,0,0,0,0,0,0,0,0,0,0,0,0,0,0,0,0,0,0,0,0,0,0,0,0,0,0,0,0,0,0,0,0,0,0,0,0,0,0,0,0,0,0,0,0,0,0,0,0,0,0,0,0,0,0,0,-2.4779,-2.4779,0,-2.4768,-2.4768,-2.4768,-2.4738,-2.4738,-2.4737,-2.4736,-2.4725,-2.4726,-2.4726,0,0,0,0,0,0,0,0,0,0,0,0,0,-2.4772,-2.4772,-2.4779,-2.4779,-2.4779,-2.4768,-2.4768,-2.4768,-2.4738,-2.4738,-2.4737,-2.4736,-2.4725,-2.4726,-2.4726,0,0,0,0,0,0,0,0,0,0,0,0,0,-2.477,-2.4773,-2.4779,-2.4763,-2.4761,-2.4768,-2.4768,-2.4768,-2.4739,-2.4738,-2.4737,-2.4736,-2.4725,-2.4726,-2.4726,-2.4748,0,0,-2.4727,-2.4728,0,0,0,0,0,0,0,0,-2.477,-2.477,-2.4765,-2.4764,-2.4762,-2.4753,-2.4761,-2.4761,-2.4739,-2.4747,-2.4736,-2.4735,-2.4735,-2.4735,-2.4735,-2.4747,-2.4747,-2.4727,-2.4728,-2.4728,-2.4728,0,0,0,0,0,0,0,-2.477,-2.477,-2.4775,-2.4765,-2.4763,-2.4755,-2.4754,-2.4761,-2.4747,-2.4746,-2.4744,-2.4743,-2.4734,-2.4735,-2.4735,-2.4747,-2.4727,-2.4728,-2.4728,-2.4728,-2.4773,-2.4774,0,0,0,0,0,0,-2.4773,-2.4771,-2.4775,-2.4774,-2.4764,-2.4756,-2.4755,-2.4757,-2.4747,-2.4744,-2.4744,-2.4742,-2.4734,-2.4734,-2.4734,-2.4757,-2.4728,-2.4728,-2.4728,-2.4772,-2.4774,-2.4775,0,0,0,0,0,0,-2.4773,-2.4773,-2.4775,-2.4772,-2.4771,-2.4757,-2.476,-2.4758,-2.4758,-2.4745,-2.4742,-2.4747,-2.4734,-2.4733,-2.4744,-2.4756,-2.4728,-2.4729,-2.4771,-2.4773,-2.4774,-2.4805,0,0,0,0,0,0,-2.4773,-2.4774,-2.4782,-2.4772,-2.4772,-2.4786,-2.4761,-2.4758,-2.4759,-2.4756,-2.4747,-2.4745,-2.4733,-2.4743,-2.4744,-2.4756,-2.4729,-2.477,-2.4772,-2.4774,-2.4802,-2.4807,-2.4811,0,0,0,0,0,-2.4772,-2.4792,-2.4783,-2.4784,-2.4782,-2.4787,-2.4787,-2.4773,-2.476,-2.4768,-2.4759,-2.4745,-2.4755,-2.4745,-2.4746,-2.4758,-2.4769,-2.4772,-2.4774,-2.48,-2.4806,-2.481,0,0,0,0,0,0,-2.4804,-2.479,-2.478,-2.4797,-2.4793,-2.4782,-2.4792,-2.4779,-2.4779,-2.4776,-2.4759,-2.4757,-2.477,-2.4765,-2.4754,-2.4777,-2.476,-2.4762,-2.478,-2.4785,-2.4789,-2.4789,-2.473,0,0,0,0,0,-2.4813,-2.4819,-2.4806,-2.4822,-2.482,-2.4806,-2.4808,-2.4797,-2.4793,-2.4791,-2.4783,-2.4779,-2.4781,-2.4783,-2.4784,-2.4802,-2.4798,-2.481,-2.4814,-2.4818,-2.482,-2.4826,-2.4831,-2.4782,-2.4781,-2.4781,0,0,-2.4832,-2.4825,-2.4829,-2.4828,-2.4824,-2.4829,-2.4805,-2.4812,-2.4815,-2.4792,-2.4801,-2.4795,-2.4789,-2.4803,-2.4808,-2.4799,-2.4833,-2.4821,-2.4823,-2.4823,-2.4829,-2.4834,-2.4838,-2.4783,-2.4783,-2.4782,0,0,-2.4868,-2.4864,-2.4876,-2.4872,-2.4865,-2.4856,-2.4858,-2.4848,-2.4843,-2.4852,-2.4834,-2.4837,-2.4842,-2.4837,-2.4836,-2.4868,-2.4854,-2.4869,-2.489,-2.4897,-2.4901,-2.4904,-2.4914,-2.4918,-2.4871,-2.4871,-2.4871,0,-2.4892,-2.4899,-2.4884,-2.4891,-2.489,-2.4868,-2.4879,-2.4876,-2.487,-2.487,-2.486,-2.4863,-2.4858,-2.4869,-2.4876,-2.4876,-2.4878,-2.487,-2.4901,-2.4905,-2.4908,-2.4917,-2.4921,-2.4873,-2.4873,-2.4872,-2.4872,0,-2.4928,-2.4933,-2.4943,-2.4937,-2.4937,-2.4947,-2.4931,-2.4933,-2.4922,-2.4913,-2.4921,-2.4914,-2.4912,-2.4914,-2.4904,-2.4923,-2.4917,-2.4905,-2.4886,-2.4914,-2.4922,-2.4926,-2.4875,-2.4875,-2.4874,-2.4874,0,0,-2.4985,-2.4969,-2.4973,-2.4969,-2.4959,-2.4962,-2.497,-2.4967,-2.4969,-2.4965,-2.497,-2.4973,-2.496,-2.4959,-2.4947,-2.4953,-2.4977,-2.494,-2.4939,-2.4946,-2.4996,-2.5004,-2.5009,-2.4968,-2.4968,-2.4969,-2.4995,0,-2.5018,-2.503,-2.5015,-2.5029,-2.5032,-2.5011,-2.5017,-2.5011,-2.5002,-2.5003,-2.4994,-2.4995,-2.498,-2.4978,-2.4983,-2.4973,-2.4986,-2.4971,-2.4971,-2.4971,-2.4972,-2.5013,-2.5023,-2.5049,-2.4999,-2.4999,-2.5,0,-2.5058,-2.5055,-2.507,-2.5057,-2.5058,-2.5063,-2.5059,-2.506,-2.5053,-2.5046,-2.5043,-2.5029,-2.5034,-2.5017,-2.5023,-2.5012,-2.5011,-2.5006,-2.5007,-2.5006,-2.4987,-2.5012,-2.5057,-2.506,-2.5005,-2.5005,-2.5004,0,-2.5096,-2.5096,-2.5104,-2.5102,-2.5087,-2.5091,-2.5086,-2.5077,-2.5076,-2.5072,-2.5071,-2.5068,-2.5066,-2.5064,-2.5049,-2.5038,-2.5056,-2.5038,-2.5049,-2.5049,-2.5054,-2.5053,-2.5097,-2.5055,-2.5055,-2.5055,-2.5055,0,-2.5134,-2.5143,-2.5121,-2.5126,-2.5135,-2.5117,-2.5126,-2.5118,-2.511,-2.5112,-2.5094,-2.5097,-2.5077,-2.5077,-2.5066,-2.5071,-2.5071,-2.5065,-2.5062,-2.5066,-2.5067,-2.5064,-2.5062,-2.5056,-2.5056,-2.5055,-2.5055,0,-2.5178,-2.5163,-2.517,-2.5156,-2.5152,-2.5159,-2.5146,-2.5149,-2.5139,-2.5142,-2.5141,-2.5125,-2.5124,-2.5109,-2.5105,-2.5097,-2.5106,-2.51,-2.5109,-2.5107,-2.5118,-2.5117,-2.5162,-2.5166,-2.5122,-2.5122,-2.5123,0,-2.5203,-2.5209,-2.5194,-2.5194,-2.5189,-2.5189,-2.5187,-2.517,-2.5168,-2.5159,-2.5163,-2.516,-2.5157,-2.5156,-2.5143,-2.5139,-2.5132,-2.5148,-2.5132,-2.5135,-2.5131,-2.513,-2.513,-2.5152,-2.5152,-2.5153,-2.5153,0,-2.5247,-2.5239,-2.5237,-2.5232,-2.523,-2.5226,-2.522,-2.5221,-2.5201,-2.52,-2.5198,-2.5196,-2.5191,-2.5187,-2.5181,-2.5174,-2.516,-2.5158,-2.516,-2.5165,-2.5169,-2.5165,-2.5117,-2.5157,-2.5157,-2.5157,-2.5156,-2.5156,-2.5281,-2.5285,-2.5274,-2.5272,-2.5266,-2.526,-2.5262,-2.5251,-2.5249,-2.5243,-2.5232,-2.5231,-2.5222,-2.5211,-2.5206,-2.5204,-2.5196,-2.52,-2.52,-2.5201,-2.5203,-2.5169,-2.5203,-2.5203,-2.5203,-2.5203,-2.5203,0,-2.5323,-2.5315,-2.5313,-2.5305,-2.5302,-2.5289,-2.5281,-2.528,-2.5279,-2.5271,-2.5268,-2.5265,-2.5261,-2.5248,-2.5242,-2.5244,-2.5237,-2.5243,-2.5242,-2.524,-2.5212,-2.5209,-2.5248,-2.5248,-2.5248,-2.5248,-2.5248,-2.5248,-2.5345,-2.5349,-2.534,-2.5341,-2.5332,-2.5331,-2.5327,-2.5321,-2.5315,-2.5312,-2.5308,-2.5299,-2.5288,-2.5282,-2.5277,-2.5274,-2.5272,-2.528,-2.5274,-2.5247,-2.5243,-2.5238,-2.5236,-2.528,-2.528,-2.5302,-2.5302,-2.5302]}]]